Simultaneous Nadir Overpasses (SNOs) Predictions

Prediction of SNOs between TERRA and METOP-C Satellite Orbit:

Table of predicted SNOs for the next 14.0 days since TLE Epoch: 10/9/2021
Index Date (TERRA) Time (TERRA) Lat,Lon (TERRA) SZA (TERRA ) Date (METOP-C) Time (METOP-C) Lat,Lon (METOP-C) SZA (METOP-C ) Distance(km) Time Diff (sec)
1 10/11/2021 06:48:39 81.22, 121.77 91.10 10/11/2021 06:48:11 81.22, 121.65 91.08 2.03 28
2 10/11/2021 07:38:05 -81.23, -70.29 88.84 10/11/2021 07:38:51 -81.23, -70.33 88.83 0.76 46
3 10/14/2021 02:22:49 81.22,-171.66 92.19 10/14/2021 02:22:33 81.23,-171.53 92.20 2.17 16
4 10/14/2021 03:12:15 -81.24, -3.70 87.76 10/14/2021 03:13:14 -81.23, -3.85 87.75 2.77 59
5 10/16/2021 21:57:00 81.23,-105.15 93.25 10/16/2021 21:56:57 81.23,-105.13 93.24 0.53 3
6 10/16/2021 22:46:27 -81.23, 62.47 86.75 10/16/2021 22:47:38 -81.23, 62.61 86.70 2.50 71
7 10/19/2021 16:41:46 -81.21, 153.31 85.80 10/19/2021 16:40:43 -81.21, 153.37 85.82 1.01 63
8 10/19/2021 17:31:11 81.23, -38.69 94.28 10/19/2021 17:31:21 81.22, -38.74 94.27 1.09 10
9 10/22/2021 12:15:56 -81.21,-140.26 84.79 10/22/2021 12:15:06 -81.21,-140.24 84.81 0.60 50



Historial Predications of SNOs between TERRA and METOP-C
